« Back
NWS Peachtree City, Ga » Text Product » GA Regional Weather Roundup


Printer-friendly Version
Current Version              Previous Versions:   1  2  3  4  5  6  7  8  9  

Regional Weather Roundup

762
ASUS42 KFFC 190303
RWRGA
WEATHER ROUNDUP FOR GEORGIA
NATIONAL WEATHER SERVICE PEACHTREE CITY GA
1100 PM EDT FRI APR 18 2014

NOTE: "FAIR" INDICATES FEW OR NO CLOUDS BELOW 12,000 FEET WITH NO
SIGNIFICANT WEATHER AND/OR OBSTRUCTIONS TO VISIBILITY.

* = USE WITH CAUTION. THE STATIONS MARKED WITH AN ASTERISK MAY NOT
REPORT WEATHER SUCH AS PRECIPITATION, FOG, OR THUNDER AND ARE NOT
QUALITY CONTROLLED BY NWS.

THE REMARK "TC" DENOTES TEMPERATURE READING IN DEGREES CELSIUS.

GAZ001>058-190400-
NORTH GEORGIA

CITY           SKY/WX    TMP DP  RH WIND       PRES   REMARKS
ATLANTA        LGT RAIN  50  47  89 NE15      30.14F FOG
ATHENS         LGT RAIN  48  47  96 N8        30.14F FOG
CHAMBLEE       LGT RAIN  49  46  90 N9        30.15F
PEACHTREE CITY RAIN      50  47  89 N9        30.12F FOG
ROME           CLOUDY    51  51 100 VRB3      30.17F
WEST ATLANTA   LGT RAIN  50  48  93 NE8       30.15F
GAINESVILLE    LGT RAIN  49  48  97 NE9       30.18F FOG
CARTERSVILLE   LGT RAIN  50  49  96 CALM      30.19F


CITY           SKY/WX    TMP DP  RH WIND       PRES   REMARKS
DALTON*        CLOUDY    54  52  94 CALM      30.18R
MARIETTA       LGT RAIN  50  49  98 VRB3      30.16F
KENNESAW*      RAIN      50  46  87 E6        30.18F FOG
$$

GAZ059>098-102>109-190400-
CENTRAL GEORGIA

CITY           SKY/WX    TMP DP  RH WIND       PRES   REMARKS
AUGUSTA-BUSH   RAIN      53  49  86 NE12      30.05F FOG
AUGUSTA-DANIEL RAIN      53  50  89 NE15G25   30.06F
COLUMBUS       LGT RAIN  53  50  89 NE13G21   30.06R
MACON          LGT RAIN  51  50  96 N12       30.08R FOG
ROBINS AFB     LGT RAIN  52  50  93 N10       30.07S


CITY           SKY/WX    TMP DP  RH WIND       PRES   REMARKS
LAGRANGE*      LGT RAIN  52  50  93 NE7G17    30.11S
SYLVANIA*      LGT RAIN  56  54  91 NE10G17   30.00S
MILLEDGEVILLE* RAIN      52  52 100 N5        30.08R
$$

GAZ099>101-110>166-190400-
SOUTH GEORGIA

CITY           SKY/WX    TMP DP  RH WIND       PRES   REMARKS
SAVANNAH       RAIN      60  57  89 E9G26     29.97S
VALDOSTA       CLOUDY    61  56  83 NE5       29.92F
ALMA           CLOUDY    56  53  90 NE5       29.95S FOG
ST SIMONS      LGT RAIN  62  61  96 VRB3      29.93F
FT STEWART     CLOUDY    58  58 100 N7        29.95F
ALBANY         LGT RAIN  55  53  93 N10       30.00F
HUNTER AFB     CLOUDY    60  60  98 NE9       29.94F
MOODY AFB      CLOUDY    57  57 100 NE6       29.92S
BRUNSWICK      CLOUDY    61  61 100 CALM      29.95S


CITY           SKY/WX    TMP DP  RH WIND       PRES   REMARKS
BAINBRIDGE*    DRIZZLE   59  57  94 N10       29.97S
MOULTRIE*      CLOUDY    55  55 100 N7        29.97S FOG
VIDALIA*       RAIN      54  54 100 NE14G20   29.97F
DOUGLAS*       CLOUDY    55  55 100 NE7       29.97S
$$



USA.gov is the U.S. government's official web portal to all federal, state and local government web resources and services.